Regional Weather Roundup
Issued by NWS

Home | Current Version | Previous Version | Graphics & Text | Print | Product List | Glossary On
Versions: 1 2 3 4 5 6 7 8 9 10 11 12 13 14 15 16 17 18 19 20 21 22 23 24 25 26 27 28 29 30 31 32 33 34 35 36 37 38 39 40 41 42 43 44 45 46 47 48 49 50
000
ASUS43 KFSD 220202
RWRSD

WEATHER ROUNDUP FOR SOUTH DAKOTA
NATIONAL WEATHER SERVICE SIOUX FALLS SD
800 PM CST TUE FEB 21 2017

NOTE: "FAIR" INDICATES FEW OR NO CLOUDS BELOW 12,000 FEET WITH NO
SIGNIFICANT WEATHER AND/OR OBSTRUCTIONS TO VISIBILITY.


SDZ001>005-009-010-012>017-220300-
NORTHWEST AND NORTH CENTRAL SOUTH DAKOTA

CITY           SKY/WX    TMP DP  RH WIND       PRES   REMARKS
BUFFALO          N/A     47  36  65 N17       29.62R
FAITH            N/A     54  38  54 W15       29.64R
MOBRIDGE       CLEAR     50  36  58 SE8       29.57F
$$

SDZ012>016-024>037-041>051-057-063-072>074-220300-
SOUTHWEST AND SOUTH CENTRAL SOUTH DAKOTA

CITY           SKY/WX    TMP DP  RH WIND       PRES   REMARKS
RAPID CTY ARPT CLEAR     54  34  46 NW21      29.71R
PIERRE         CLEAR     51  36  56 E7        29.60S
CUSTER         CLOUDY    52  20  28 W15G23    29.77R
ELLSWORTH AFB  PTCLDY    56  36  45 NW23G39   29.71R
PHILIP         MOCLDY    58  33  39 W12       29.65R
PINE RIDGE     CLEAR     57  28  33 W10       29.74S
SPEARFISH      LGT RAIN  48  41  76 W21G36    29.80R
WINNER         FAIR      59  33  37 SW8       29.66F
$$

SDZ004>011-016>023-039-040-220300-
NORTHEAST SOUTH DAKOTA

CITY           SKY/WX    TMP DP  RH WIND       PRES   REMARKS
ABERDEEN       PTCLDY    45  38  76 E8        29.64F
WATERTOWN      CLEAR     43  39  86 CALM      29.67S
BROOKINGS      CLEAR     50  39  66 SE5       29.69S
SISSETON         N/A     40  38  93 CALM      29.67S
$$

SDZ017-020-022-023-036>040-048>070-220300-
SOUTHEAST SOUTH DAKOTA

CITY           SKY/WX    TMP DP  RH WIND       PRES   REMARKS
SIOUX FALLS    CLEAR     45  38  76 CALM      29.69F
HURON          CLEAR     52  37  56 SE8       29.63F
CHAMBERLAIN    CLEAR     53  40  60 CALM      29.64F
MITCHELL       CLEAR     52  38  58 S10       29.66F
YANKTON        CLEAR     55  36  47 E7        29.68F
$$

ABBREVIATIONS USED IN REMARKS
   TC - TEMPERATURE IN CELSIUS
  WCI - WIND CHILL INDEX
   HX - HEAT INDEX
  VSB - VISIBILITY





USA.gov is the U.S. government's official web portal to all federal, state and local government web resources and services.